sat.trackr.live / text

‹ back to catalog

UNKNOWN

NORAD 87934

UNKNOWN UNKNOWN UNKNOWN

§ Identity

Operator
Country
Launch date
Launch site
Launch vehicle
Mass (kg)
RCS (m²)

External: N2YO · Heavens-Above

§ Orbital elements

Epoch: 2026-05-20T08:43:26.812992Z

Period
104.87 min
Inclination
82.9384°
Eccentricity
0.0032016
Mean motion
13.73133924 rev/d
Perigee alt
964.8 km
Apogee alt
1,011.9 km
Semi-major
7,366.5 km
B*
3.9020e-5
RAAN
182.4855°
Arg perigee
316.8109°
Mean anomaly
59.0717°
Rev number
62,608

§ Raw data

UNKNOWN1 87934U          26140.36350478  .00000051  00000+0  39020-4 0  99932 87934  82.9384 182.4855 0032016 316.8109  59.0717 13.73133924626087

JSON: /api/v1/satellites/87934 · /tle

For live sub-satellite position, see the globe view (requires WebGL).

§ Visibility from observer

Set your observer location to see the next 7 days of passes ≥ 10°. The values pass through the URL so the page stays shareable.

No JS? Fill the form by hand. The geolocation button needs JavaScript.